Regional Weather Roundup
Issued by NWS

Home | Current Version | Previous Version | Graphics & Text | Print | Product List | Glossary On
Versions: 1 2 3 4 5 6 7 8 9 10 11 12 13 14 15 16 17 18 19 20 21 22 23 24 25 26 27 28 29 30 31 32 33 34 35 36 37 38 39 40 41 42 43 44 45 46 47 48 49 50
000
ASUS43 KLOT 301812
RWRIL

ILLINOIS REGIONAL WEATHER ROUNDUP
NATIONAL WEATHER SERVICE CHICAGO/ROMEOVILLE IL
100 PM CDT THU JUL 30 2015

NOTE: "FAIR" INDICATES FEW OR NO CLOUDS BELOW 12,000 FEET WITH NO
SIGNIFICANT WEATHER AND/OR OBSTRUCTIONS TO VISIBILITY.

* THESE STATIONS ARE NOT UNDER NWS QUALITY CONTROL. THEY ALSO MAY NOT
  REPORT WEATHER SUCH AS PRECIPITATION OR FOG.

ILZ001-002-007-009-015-016-024-301900-
NORTHWEST ILLINOIS

CITY           SKY/WX    TMP DP  RH WIND       PRES   REMARKS
MOLINE         SUNNY     86  61  42 W9        30.11F HX  86
6HR MIN TEMP:  67; 6HR MAX TEMP:  87;

STERLING*      SUNNY     86  64  48 NW14      30.08S HX  87
SAVANNA*       SUNNY     85  59  41 W9        30.10F HX  84
$$

ILZ003-004-008-010-011-017-018-301900-
NORTH CENTRAL ILLINOIS

CITY           SKY/WX    TMP DP  RH WIND       PRES   REMARKS
ROCKFORD       MOSUNNY   86  55  34 W17G23    30.09F HX  84
6HR MIN TEMP:  66; 6HR MAX TEMP:  86;

FREEPORT*      SUNNY     83  55  38 W13G24    30.11F HX  82
ROCHELLE*      SUNNY     84  59  43 W10G17    30.10F HX  83
DE KALB*       SUNNY     83  56  39 NW15G22   30.10S HX  82
PERU*          SUNNY     83  59  44 W8        30.12S HX  83
$$

ILZ005-006-012>014-019>023-301900-
NORTHEAST ILLINOIS

CITY           SKY/WX    TMP DP  RH WIND       PRES   REMARKS
CHICAGO-OHARE  MOSUNNY   86  54  33 W15       30.06S HX  84
6HR MIN TEMP:  67; 6HR MAX TEMP:  87;

CHICAGO-MIDWAY MOSUNNY   88  53  30 W12G20    30.06S HX  86
6HR MIN TEMP:  71; 6HR MAX TEMP:  88;

AURORA         SUNNY     84  57  39 NW12      30.09S HX  83
6HR MIN TEMP:  63; 6HR MAX TEMP:  84;

LANSING*       SUNNY     85  55  35 W8G21     30.07F HX  84
JOLIET*        SUNNY     85  56  37 NW9G16    30.09S HX  84
WAUKEGAN       SUNNY     84  56  38 VRB7G17   30.04F HX  83
6HR MIN TEMP:  67; 6HR MAX TEMP:  84;

DUPAGE AIRPORT SUNNY     86  54  33 W12G18    30.07F HX  84
6HR MIN TEMP:  65; 6HR MAX TEMP:  86;

KANKAKEE*      SUNNY     84  59  42 NW9       30.10S HX  84
WHEELING       SUNNY     86  52  30 NW17G26   30.07S HX  84
6HR MIN TEMP:  68; 6HR MAX TEMP:  86;

MORRIS*        SUNNY     83  59  44 NW15      30.08F HX  83
ROMEOVILLE*    SUNNY     83  54  36 NW13      30.09S HX  82
NORTHERLY ISL    N/A     85  50  29 NW9         N/A  HX  83
$$

LMZ740>746-301900-
SOUTHERN LAKE MICHIGAN

STATION/POSITION SKY/WX   TEMP    WIND        PRES    VSBY  WAVE
                          AIR SEA DIR/SP/G                  HT/PER
                          (F)     (DEG/KT/KT) (MB)    (MI)  (FT/S)
HARRISON CRIB              79     320/ 13/ 15   N/A
BURNHAM HARBOR             85     310/ 11/ 16   N/A
CALUMET HARBOR             84     320/  7/ 13   N/A
BURNS HARBOR               76     280/  5/  6 1018.6S
MICHIGAN CITY              74     230/ 10/ 12   N/A
MICHIGAN CITY 6N           75 73  260/  6/  8   N/A           2/ 4
ST. JOSEPH                 74 74  270/ 12/ 12   N/A           3/ 5
$$

ILZ025>027-034>036-040-047-049-050-058-095>099-301900-
WEST-CENTRAL ILLINOIS

CITY           SKY/WX    TMP DP  RH WIND       PRES   REMARKS
QUINCY         SUNNY     85  61  44 W10       30.17F HX  85
GALESBURG*     SUNNY     84  66  54 W7        30.14F HX  86
MACOMB*        SUNNY     84  62  46 W9        30.17F HX  84
JACKSONVILLE*  SUNNY     87  63  44 NW9       30.16S HX  87
PITTSFIELD*    SUNNY     86  59  40 W9        30.18S HX  86
$$

ILZ028>032-037-038-041>044-048-051>054-059>061-301900-
CENTRAL ILLINOIS

CITY           SKY/WX    TMP DP  RH WIND       PRES   REMARKS
PONTIAC        SUNNY     83  66  57 W12       30.13S HX  85
BLOOMINGTON    SUNNY     85  62  45 NW12      30.15S HX  85
DECATUR        SUNNY     87  60  40 W13       30.14F HX  87
PEORIA         SUNNY     86  64  47 VRB7      30.13F HX  87
6HR MIN TEMP:  71; 6HR MAX TEMP:  87;

LACON*         SUNNY     83  62  49 NW7       30.11F HX  84
LINCOLN*       SUNNY     88  60  38 W6        30.13S HX  88
SPRINGFIELD    SUNNY     86  64  47 NW10      30.15F HX  87
6HR MIN TEMP:  64; 6HR MAX TEMP:  86;

TAYLORVILLE    SUNNY     82  63  51 NW6       30.15S HX  83
$$

ILZ033-039-045-046-055>057-062-063-301900-
EAST-CENTRAL ILLINOIS

CITY           SKY/WX    TMP DP  RH WIND       PRES   REMARKS
CHAMPAIGN      SUNNY     84  64  50 NW9       30.14S HX  85
DANVILLE*      SUNNY     83  61  47 NW10      30.10S HX  83
RANTOUL*       SUNNY     85  64  48 NW9G16    30.13S HX  87
MATTOON        SUNNY     86  58  38 NW15      30.14S HX  85
PARIS*         SUNNY     85  62  45 NW8G16    30.14S HX  85
$$

ILZ079-100>102-301900-
SOUTHWEST ILLINOIS

CITY           SKY/WX    TMP DP  RH WIND       PRES   REMARKS
ALTON          SUNNY     84  59  42 W8        30.17F HX  84
BELLEVILLE     SUNNY     87  61  41 VRB5      30.15F HX  86
CAHOKIA*       SUNNY     90  54  29 NW9       30.16F HX  88
SPARTA*        SUNNY     85  60  42 N3        30.18S HX  85
$$

ILZ064>066-069>071-074>076-080>082-084>086-088>090-092>094-301900-
SOUTH-CENTRAL ILLINOIS

CITY           SKY/WX    TMP DP  RH WIND       PRES   REMARKS
CARBONDALE     SUNNY     86  58  38 VRB5      30.16S HX  85
6HR MIN TEMP:  68; 6HR MAX TEMP:  86;

CAIRO*         SUNNY     84  64  51 NE7       30.15F HX  85
EFFINGHAM*     SUNNY     85  56  36 NW9       30.16S HX  84
MARION         SUNNY     86  59  39 N9        30.17S HX  85
MT. VERNON     SUNNY     84  61  45 NW6       30.16S HX  84
CENTRALIA*     SUNNY     85  55  34 CALM      30.15F HX  84
SALEM*         SUNNY     87  59  39 N5        30.16S HX  86
METROPOLIS*    SUNNY     84  61  45 NE5       30.16S HX  84
$$

ILZ067-068-072-073-078-083-087-091-301900-
SOUTHEAST ILLINOIS

CITY           SKY/WX    TMP DP  RH WIND       PRES   REMARKS
LAWRENCEVILLE  SUNNY     85  59  41 N14       30.14R HX  84
FLORA*         SUNNY     85  59  41 NW8       30.15F HX  84
FAIRFIELD*     SUNNY     84  62  46 NW8       30.14S HX  85
HARRISBURG*    SUNNY     84  61  44 NE7       30.16S HX  84
ROBINSON*      SUNNY     84  60  44 NW6       30.14S HX  84
CARMI*         SUNNY     84  57  40 NE5       30.14S HX  83
$$

ABBREVIATIONS USED IN REMARKS
   TC - TEMPERATURE IN CELSIUS
  WCI - WIND CHILL INDEX
   HX - HEAT INDEX
  VSB - VISIBILITY
$$




USA.gov is the U.S. government's official web portal to all federal, state and local government web resources and services.